Location: Tel Aviv
(32.0670°N, 34.7670°E)
Time: 16:59:37
(UTC+03:00)

ACS3 Solar Sail - Visible Passes

Search period start: 13 July 2025 00:00
Search period end: 23 July 2025 00:00
Orbit: 912 x 1023 km, 97.5° (Epoch: 12 July)

Date Brightness Start Highest point End Pass type
(mag) Time Alt. Az. Time Alt. Az. Time Alt. Az.
13 Jul 4.5 04:08:47 10° ENE 04:10:41 11° E 04:12:34 10° ESE visible
14 Jul 4.2 04:29:08 10° NE 04:33:27 20° E 04:37:49 10° SE visible
15 Jul 3.5 04:50:45 10° NNE 04:56:08 33° E 05:01:37 10° SSE visible
16 Jul 2.6 05:12:49 10° NNE 05:18:44 54° E 05:24:46 10° S visible
18 Jul 4.3 04:16:31 10° NE 04:20:12 16° E 04:23:54 10° SE visible
19 Jul 3.8 04:37:46 10° NE 04:42:51 27° E 04:48:01 10° SSE visible
20 Jul 3.0 04:59:38 10° NNE 05:05:25 44° E 05:11:19 10° S visible
21 Jul 2.2 05:21:49 10° NNE 05:27:55 72° E 05:34:09 10° S visible
22 Jul 4.5 04:04:02 10° ENE 04:06:42 13° E 04:09:21 10° ESE visible
